STARLINK-1554, 46055

Orbit data source: Space-Track

STARLINK-1554, 46055 is a payload satellite owned by SpaceX/Seattle (US) in LEO that was launched on Fri, 07 Aug 2020 UTC via an FALCON 9 launch vehicle from the Air Force Eastern Test Range (AFETR). Payload-class satellites include a variety of spacecraft equipped with specific instruments for various scientific and technological missions. These include communications satellites like Starlink; space stations such as the ISS; scientific satellites like the Hubble; Earth observation satellites from companies like Planet Labs, Umbra, and HawkEye 360; GPS; miniature CubeSats for education and research; and military/defense satellites.

Loading next visibility...
Identifier
46055, 2020-055AE
Orbit
LEO
Country
Flag of USUS
Related business
Manufacturer
SpaceX/Seattle
Mission
Operational Commercial Communications
Bus & Motor
STARLINK, Unknown motor
Mass
260 kg wet, ~248 kg dry
Launch date (UTC)
2020-08-07 (6 years ago)
Launch vehicle
FALCON 9
Launch site
Air Force Eastern Test Range (AFETR)
Object type
Payload
Rocket body
Debris
Shape & HBR
Box + 1 Pan, 10.1 m
Radar Cross Section
13.562 m², Large (>1 m²)

Expand to show TLE details & history
Last TLE update: 12 hours ago

TLE from 12 hours ago
0 STARLINK-1554
1 46055U 20055AE  26163.85214411  .00007783  00000-0  26201-3 0  9995
2 46055  53.1605  31.3475 0001118 101.1041 259.0086 15.31736734323653
Epoch: 2026-06-12T20:27Z
TLE epoch observation values (Epoch: 2026-06-12T20:27:05.251Z)
Latitude
-0.00002°
Longitude
-176.60004°
Altitude
471.677 km
Speed
7.631 km/s
True Right ascension
02h 05m 23s
True Declination
0° 00' 00"
Sunlit
Object was in daylight at epoch
Visualization orbit readout
Latitude
Unknown
Longitude
Unknown
Altitude
Unknown
Speed
Unknown
Apparent Right ascension
Unknown
Apparent Declination
Unknown
Sunlit
N/A
Visualization observer readout
Local Sidereal Time
18:52:23
Azimuth
Unknown
Elevation
Unknown
Doppler factor
Unknown
Orbital elements
Apogee altitude
471.653 km
Perigee altitude
470.121 km
Semi-major axis
6,849.024 km
Eccentricity
0.00011
Inclination
53.1605°
RAAN
31.3475°
Arg. of periapsis
101.1041°
True anomaly
258.99602°
Mean anomaly
259.0086°
Eccentric anomaly
259.00231°
Mean motion
3.82913 °/min
Orbital period
94.02 mins
BSTAR
0.00026201
Loading maneuver chart data...
Computing Atmospheric mass density...

Documentation

Showing up to 5 results
|